Back to catalog

STARLINK-36838

AliveCommunicationsVLEO
NORAD 67855·PAYLOAD·🇺🇸 United States

Launched Feb 20, 2026 from Vandenberg Space Force Base

Loading…

Next Passes (next 24 hours)

TLE

FreshSource: CelesTrak SupGP

Epoch: Sep 14, 2026, 15:08 UTC

1 67855C 26034F   26257.63104167 -.00054837  00000+0 -17638-2 0  2578
2 67855  53.1583  45.3360 0001166  86.3261 203.0613 15.31722796    18

Track STARLINK-36838 in real time with AllMySat

Download on the App Store